Regional Weather Roundup
Issued by NWS Boston, MA

Home | Current Version | Previous Version | Text Only | Print | Product List | Glossary On
Versions: 1 2 3 4 5 6 7 8 9 10 11 12 13 14 15 16 17 18 19 20 21 22 23 24 25 26 27
000
ASUS41 KBOX 132305
RWRBOX

REGIONAL WEATHER ROUNDUP
NATIONAL WEATHER SERVICE BOSTON/NORTON MA
700 PM EDT THU MAY 13 2021

NOTE:  "FAIR" INDICATES FEW OR NO CLOUDS BELOW 12,000 FEET WITH NO
SIGNIFICANT WEATHER AND/OR OBSTRUCTIONS TO VISIBILITY.

MAZALL-140000-
EASTERN MASSACHUSETTS

CITY           SKY/WX    TMP DP  RH WIND       PRES   REMARKS
BOSTON         PTCLDY    63  39  41 E10       30.10S
BEVERLY        CLEAR     62  38  40 SE3         N/A
LAWRENCE       CLEAR     67  29  24 N3        30.10S
BEDFORD        CLEAR     68  29  23 NW7       30.08S
BLUE HILL        N/A     65  28  24 VRB3      30.09S
NORWOOD        PTCLDY    68  29  23 VRB6      30.09S
MARSHFIELD     CLEAR     64  41  42 VRB6      30.10S
PLYMOUTH       CLEAR     63  39  41 VRB7      30.11R
TAUNTON        MOCLDY    64  37  36 S5        30.10S
NEW BEDFORD    CLEAR     62  34  35 SW13      30.11S
$$

MAZALL-140000-
CAPE COD AND THE ISLANDS

CITY           SKY/WX    TMP DP  RH WIND       PRES   REMARKS
FALMOUTH       CLEAR     61  34  36 SW15      30.13
HYANNIS        CLEAR     61  36  39 SW13      30.12R
CHATHAM        CLEAR     57  45  64 SW9       30.15R
PROVINCETOWN   CLEAR     60  41  49 S8        30.13R
NANTUCKET      CLEAR     55  46  71 SW10      30.15S
MARTHAS VNYRD  CLEAR     57  43  59 SW12      30.14R
$$

MAZALL-140000-
CENTRAL AND WESTERN MASSACHUSETTS

CITY           SKY/WX    TMP DP  RH WIND       PRES   REMARKS
WORCESTER      PTCLDY    64  24  21 NW5       30.11S
FITCHBURG      CLEAR     68  27  21 N8        30.10S
ORANGE         CLEAR     68  24  19 NW7       30.11S
SPRINGFIELD    PTCLDY    67  27  22 N3        30.10S
WESTFIELD      MOSUNNY   68  28  22 NW8       30.11S
NORTH ADAMS    SUNNY     66  24  20 VRB7      30.13S
PITTSFIELD     MOSUNNY   62  29  28 NW7       30.13R
$$

RIZALL-140000-
RHODE ISLAND

CITY           SKY/WX    TMP DP  RH WIND       PRES   REMARKS
PROVIDENCE     PTCLDY    64  38  38 S8        30.11S
NEWPORT        CLEAR     58  40  51 S7        30.12S
BLOCK ISLAND   CLEAR     55  43  63 SW17      30.15S
SMITHFIELD     PTCLDY    65  30  27 W7        30.11S
WESTERLY       PTCLDY    59  38  45 SW7       30.13S
$$

CTZALL-140000-
CONNECTICUT

CITY           SKY/WX    TMP DP  RH WIND       PRES   REMARKS
BRADLEY INTL   PTCLDY    68  27  21 NW6       30.11S
HARTFORD       PTCLDY    68  24  19 NW7       30.11S
BRIDGEPORT     MOSUNNY   66  35  31 SW6       30.13S
DANBURY        SUNNY     68  26  20 NW6       30.15S
GROTON         PTCLDY    61  33  35 W7        30.12S
NEW HAVEN      PTCLDY    63  35  35 S5        30.13S
CHESTER        FAIR      66  27  22 VRB5G14   30.13S
MERIDEN        CLEAR     64  31  28 S6        30.13R
WILLIMANTIC    CLEAR     65  30  27 CALM      30.13R
OXFORD         SUNNY     64  26  23 N8        30.14S
$$

MEZ002-015-021-024-NHZ003-005-008-011-012-014-VTZ005-008-140000-
NORTHERN NEW ENGLAND

CITY           SKY/WX    TMP DP  RH WIND       PRES   REMARKS
PORTLAND ME    PTCLDY    63  34  33 S5        30.06S
BANGOR ME      MOCLDY    63  35  35 W8        30.03R
CONCORD NH     CLEAR     67  25  20 NW8       30.08S
MANCHESTER NH  PTCLDY    70  23  17 NW7       30.07S
NASHUA NH      PTCLDY    67  30  25 W3        30.09S
PORTSMOUTH NH  PTCLDY    62  30  29 SE9       30.09R
JAFFREY NH     CLEAR     66  23  19 VRB5      30.11S
KEENE NH       CLEAR     67  28  23 N7        30.11R
BURLINGTON VT  MOSUNNY   69  27  20 N3        30.11F
MT. WASHINGTON MOCLDY    36  28  75 NW31G40     N/A  WCI  22
$$

NYZ052-076-140000-
EASTERN NEW YORK

CITY           SKY/WX    TMP DP  RH WIND       PRES   REMARKS
ALBANY         MOSUNNY   64  35  34 W6        30.13S
NEW YORK CITY  MOSUNNY   66  29  24 S13       30.14R
$$

ANZALL-140000-
MARINE OBSERVATIONS

STATION/POSITION TIME  TEMP    WIND        PRES    VSBY  WAVE
                       AIR SEA DIR/SP/G                  HT/PER
                 (UTC) (F)     (DEG/KT/KT) (MB)    (MI)  (FT/S)
BOSTON BUOY      2250   55 52  160/ 10/ 12 1019.4R         1
BUZZARDS BAY     2200          230/ 19/ 21 1021.0F
NANTUCKET SOUND  2250      55                N/A           1/ 3
MASS BAY-STELLWA 2204   57     170/ 10/ 12 1018.4F  1 7/8  1
ISLE OF SHOALS   2200   56     180/ 19/ 20 1018.2F
S OF BLOCK IS    2226      52                N/A           1/ 8
$$

......................KEY.........................
  SKY/WX - SKY CONDITION/PRESENT WEATHER
  TMP    - TEMPERATURE IN FAHRENHEIT
  DWPT   - DEWPOINT IN FAHRENHEIT
  RH     - RELATIVE HUMIDITY IN PERCENT
  WIND   - DIRECTION AND SPEED IN MPH
  PRES   - MEAN SEA LEVEL PRESSURE IN INCHES OF HG
  WCI    - WIND CHILL INDEX
  VSB    - VISIBILITY IN MILES
  HX     - HEAT INDEX
  TC     - TEMPERATURE IN CELSIUS
  VRB    - VARIABLE WIND DIRECTION
  N/A    - NOT AVAILABLE



USA.gov is the U.S. government's official web portal to all federal, state and local government web resources and services.